When you browse on this site, cookies collect data to enhance your experience and personalize the content and advertising you see.
Visit our Privacy Policy to learn more. By continuing to use the site, you agree to this use of cookies and data.
  • în România
  • Lista ţărilor
  • Pe 7 zile
  • Temperatura apei
  • Hartă satelitară
  • Meteo pe hartă
  • Widget-uri
  • user-avatar
    Intrare

    Meteo pe oră la Pionerskoe

    Astăzi, 17 Noiembrie, Sâmbătă

    Timp Temperatura Precipitaţii Vânt Presiune Umiditate
    00:00 -6°C° 0 mm 3 m/s 775 mmHg 33%
    01:00 -5°C° 0 mm 2 m/s 775 mmHg 33%
    02:00 -5°C° 0 mm 2 m/s 774 mmHg 33%
    03:00 -5°C° 0 mm 2 m/s 774 mmHg 33%
    04:00 -5°C° 0 mm 2 m/s 774 mmHg 33%
    05:00 -5°C° 0 mm 2 m/s 774 mmHg 33%
    06:00 -6°C° 0 mm 2 m/s 773 mmHg 33%
    07:00 -3°C° 0 mm 1 m/s 773 mmHg 31%
    08:00 -2°C° 0 mm 1 m/s 773 mmHg 29%
    09:00 -2°C° 0 mm 1 m/s 773 mmHg 27%
    10:00 0°C° 0 mm 1 m/s 772 mmHg 25%
    11:00 +1°C° 0 mm 1 m/s 772 mmHg 22%
    12:00 +2°C° 0 mm 1 m/s 771 mmHg 20%
    13:00 +2°C° 0 mm 1 m/s 771 mmHg 22%
    14:00 +2°C° 0 mm 1 m/s 770 mmHg 24%
    15:00 +2°C° 0 mm 1 m/s 770 mmHg 26%
    16:00 +1°C° 0 mm 1 m/s 769 mmHg 26%
    17:00 0°C° 0 mm 1 m/s 769 mmHg 27%
    18:00 -1°C° 0 mm 1 m/s 768 mmHg 28%
    19:00 -3°C° 0 mm 2 m/s 768 mmHg 28%
    20:00 -3°C° 0 mm 2 m/s 768 mmHg 28%
    21:00 -3°C° 0 mm 2 m/s 767 mmHg 28%
    22:00 -3°C° 0 mm 2 m/s 767 mmHg 28%
    23:00 -3°C° 0 mm 2 m/s 766 mmHg 29%

    Mâine, 18 Noiembrie, Duminică

    Timp Temperatura Precipitaţii Vânt Presiune Umiditate
    00:00 -3°C° 0 mm 2 m/s 766 mmHg 29%
    01:00 -4°C° 0 mm 2 m/s 765 mmHg 30%
    02:00 -4°C° 0 mm 2 m/s 765 mmHg 31%
    03:00 -4°C° 0 mm 2 m/s 765 mmHg 32%
    04:00 -4°C° 0 mm 2 m/s 764 mmHg 32%
    05:00 -4°C° 0 mm 2 m/s 764 mmHg 32%
    06:00 -4°C° 0 mm 2 m/s 763 mmHg 32%
    07:00 -4°C° 0 mm 2 m/s 763 mmHg 31%
    08:00 -3°C° 0 mm 2 m/s 763 mmHg 31%
    09:00 -3°C° 0 mm 2 m/s 763 mmHg 30%
    10:00 -1°C° 0 mm 2 m/s 763 mmHg 28%
    11:00 +1°C° 0 mm 2 m/s 762 mmHg 27%
    12:00 +2°C° 0 mm 2 m/s 762 mmHg 25%
    13:00 +2°C° 0 mm 2 m/s 762 mmHg 28%
    14:00 +2°C° 0 mm 2 m/s 762 mmHg 31%
    15:00 +1°C° 0 mm 2 m/s 762 mmHg 34%
    16:00 -1°C° 0 mm 2 m/s 762 mmHg 36%
    17:00 -1°C° 0 mm 2 m/s 762 mmHg 38%
    18:00 -2°C° 0 mm 2 m/s 762 mmHg 40%
    19:00 -2°C° 0 mm 2 m/s 762 mmHg 40%
    20:00 -1°C° 0 mm 1 m/s 762 mmHg 40%
    21:00 -1°C° 0 mm 1 m/s 762 mmHg 40%
    22:00 -1°C° 0 mm 1 m/s 762 mmHg 40%
    23:00 -1°C° 0 mm 1 m/s 762 mmHg 41%

    Poimâine, 19 Noiembrie, Luni

    Timp Temperatura Precipitaţii Vânt Presiune Umiditate
    00:00 -1°C° 0 mm 1 m/s 763 mmHg 41%
    01:00 -1°C° 0 mm 1 m/s 763 mmHg 41%
    02:00 -2°C° 0 mm 0 m/s 763 mmHg 40%
    03:00 -2°C° 0 mm 0 m/s 763 mmHg 40%
    04:00 -2°C° 0 mm 0 m/s 764 mmHg 40%
    05:00 -3°C° 0 mm 0 m/s 764 mmHg 40%
    06:00 -3°C° 0 mm 0 m/s 764 mmHg 39%
    07:00 -2°C° 0 mm 0 m/s 764 mmHg 37%
    08:00 -2°C° 0 mm 0 m/s 765 mmHg 36%
    09:00 -1°C° 0 mm 0 m/s 765 mmHg 34%
    10:00 0°C° 0 mm 0 m/s 765 mmHg 31%
    11:00 +2°C° 0 mm 1 m/s 766 mmHg 29%
    12:00 +3°C° 0 mm 1 m/s 766 mmHg 27%
    13:00 +3°C° 0 mm 1 m/s 766 mmHg 28%
    14:00 +2°C° 0 mm 1 m/s 766 mmHg 30%
    15:00 +2°C° 0 mm 1 m/s 766 mmHg 32%
    16:00 +1°C° 0 mm 1 m/s 767 mmHg 34%
    17:00 +1°C° 0 mm 1 m/s 767 mmHg 35%
    18:00 0°C° 0 mm 1 m/s 767 mmHg 36%
    19:00 0°C° 0 mm 1 m/s 767 mmHg 36%
    20:00 -1°C° 0 mm 1 m/s 767 mmHg 37%
    21:00 -1°C° 0 mm 1 m/s 767 mmHg 37%
    22:00 -1°C° 0 mm 1 m/s 768 mmHg 38%
    23:00 -1°C° 0 mm 1 m/s 768 mmHg 38%

    20 Noiembrie, Marţi

    Timp Temperatura Precipitaţii Vânt Presiune Umiditate
    00:00 -1°C° 0 mm 1 m/s 768 mmHg 39%
    01:00 -1°C° 0 mm 1 m/s 768 mmHg 40%
    02:00 -1°C° 0 mm 1 m/s 768 mmHg 42%
    03:00 -2°C° 0 mm 1 m/s 769 mmHg 43%
    04:00 -2°C° 0 mm 1 m/s 769 mmHg 44%
    05:00 -2°C° 0 mm 1 m/s 768 mmHg 45%
    06:00 -2°C° 0 mm 1 m/s 768 mmHg 46%
    07:00 -2°C° 0 mm 1 m/s 769 mmHg 45%
    08:00 -1°C° 0 mm 1 m/s 769 mmHg 44%
    09:00 -1°C° 0 mm 1 m/s 769 mmHg 43%
    10:00 0°C° 0 mm 1 m/s 769 mmHg 41%
    11:00 +1°C° 0 mm 1 m/s 769 mmHg 39%
    12:00 +2°C° 0 mm 1 m/s 768 mmHg 36%
    13:00 +2°C° 0 mm 1 m/s 768 mmHg 38%
    14:00 +1°C° 0 mm 1 m/s 768 mmHg 39%
    15:00 +1°C° 0 mm 1 m/s 767 mmHg 41%
    16:00 +1°C° 0 mm 1 m/s 767 mmHg 42%
    17:00 0°C° 0 mm 1 m/s 767 mmHg 43%
    18:00 -2°C° 0 mm 2 m/s 766 mmHg 44%
    19:00 -2°C° 0 mm 2 m/s 766 mmHg 44%
    20:00 -2°C° 0 mm 2 m/s 766 mmHg 43%
    21:00 -2°C° 0 mm 2 m/s 766 mmHg 43%
    22:00 -2°C° 0 mm 2 m/s 766 mmHg 43%
    23:00 -2°C° 0 mm 2 m/s 765 mmHg 43%

    21 Noiembrie, Miercuri

    Timp Temperatura Precipitaţii Vânt Presiune Umiditate
    00:00 -2°C° 0 mm 2 m/s 765 mmHg 43%
    01:00 -2°C° 0 mm 2 m/s 764 mmHg 47%
    02:00 0°C° 0 mm 1 m/s 764 mmHg 51%
    03:00 0°C° 0 mm 1 m/s 764 mmHg 55%
    04:00 0°C° 0 mm 1 m/s 763 mmHg 57%
    05:00 -1°C° 0 mm 1 m/s 763 mmHg 59%
    06:00 -3°C° 0 mm 2 m/s 763 mmHg 61%
    07:00 -2°C° 0 mm 2 m/s 763 mmHg 60%
    08:00 -2°C° 0 mm 2 m/s 762 mmHg 58%
    09:00 -2°C° 0 mm 2 m/s 762 mmHg 57%
    10:00 -1°C° 0 mm 2 m/s 762 mmHg 56%
    11:00 -1°C° 0 mm 2 m/s 762 mmHg 56%
    12:00 +1°C° 0 mm 2 m/s 761 mmHg 55%
    13:00 +1°C° 0 mm 2 m/s 761 mmHg 58%
    14:00 +1°C° 0 mm 1 m/s 761 mmHg 60%
    15:00 +1°C° 0 mm 1 m/s 760 mmHg 63%
    16:00 +1°C° 0 mm 1 m/s 760 mmHg 65%
    17:00 0°C° 0 mm 1 m/s 760 mmHg 68%
    18:00 0°C° 0 mm 1 m/s 760 mmHg 71%
    19:00 -1°C° 0 mm 1 m/s 760 mmHg 72%
    20:00 -1°C° 0 mm 1 m/s 760 mmHg 73%
    21:00 -1°C° 0 mm 1 m/s 759 mmHg 74%
    22:00 -1°C° 0 mm 1 m/s 759 mmHg 74%
    23:00 -1°C° 0 mm 1 m/s 759 mmHg 73%

    22 Noiembrie, Joi

    Timp Temperatura Precipitaţii Vânt Presiune Umiditate
    00:00 -1°C° 0 mm 1 m/s 759 mmHg 73%
    01:00 -3°C° 0 mm 2 m/s 759 mmHg 74%
    02:00 -3°C° 0 mm 2 m/s 759 mmHg 74%
    03:00 -3°C° 0 mm 2 m/s 758 mmHg 74%
    04:00 -4°C° 0 mm 2 m/s 758 mmHg 76%
    05:00 -4°C° 0 mm 2 m/s 758 mmHg 77%
    06:00 -4°C° 0 mm 2 m/s 758 mmHg 78%
    07:00 -5°C° 0 mm 3 m/s 758 mmHg 76%
    08:00 -4°C° 0 mm 3 m/s 758 mmHg 75%
    09:00 -4°C° 0 mm 3 m/s 758 mmHg 73%
    10:00 -4°C° 0 mm 3 m/s 758 mmHg 71%
    11:00 -2°C° 0 mm 3 m/s 758 mmHg 69%
    12:00 -2°C° 0 mm 3 m/s 758 mmHg 67%
    13:00 -2°C° 0 mm 3 m/s 758 mmHg 67%
    14:00 -2°C° 0 mm 3 m/s 758 mmHg 67%
    15:00 -2°C° 0 mm 3 m/s 758 mmHg 67%
    16:00 -4°C° 0 mm 3 m/s 758 mmHg 69%
    17:00 -4°C° 0 mm 3 m/s 758 mmHg 71%
    18:00 -4°C° 0 mm 2 m/s 758 mmHg 73%
    19:00 -5°C° 0 mm 3 m/s 759 mmHg 74%
    20:00 -5°C° 0 mm 3 m/s 759 mmHg 74%
    21:00 -6°C° 0 mm 3 m/s 759 mmHg 75%
    22:00 -6°C° 0 mm 3 m/s 759 mmHg 75%
    23:00 -6°C° 0 mm 3 m/s 759 mmHg 76%
    Arată mai mult